Regional Weather Roundup
Issued by NWS New Orleans/Baton Rouge, LA

Home | Current Version | Previous Version | Graphics & Text | Print | Product List | Glossary On
Versions: 1 2 3 4 5 6 7 8 9 10 11 12 13 14 15 16 17 18 19 20 21 22 23 24 25 26 27 28 29 30 31 32 33 34 35 36 37 38 39 40 41 42 43 44 45 46 47 48 49 50
596
ASUS44 KLIX 290701
RWRLIX
NEW ORLEANS REGIONAL WEATHER ROUNDUP
NATIONAL WEATHER SERVICE NEW ORLEANS LA
100 AM CST THU JAN 29 2015

NOTE: "FAIR" INDICATES FEW OR NO CLOUDS BELOW 12,000 FEET WITH NO
      SIGNIFICANT WEATHER AND/OR OBSTRUCTIONS TO VISIBILITY.
      SKY/WX - SKY CONDITION AND SIGNIFICANT WEATHER.
      TMP - AIR TEMPERATURE.     DP    - DEWPOINT TEMPERATURE.
      RH  - RELATIVE HUMIDITY.   PRES  - PRESSURE.
      HI  - HEAT INDEX.          WCI   - WIND CHILL INDEX.

*  THESE STATIONS ARE NOT NWS OR FAA STATIONS AND ARE NOT UNDER
   NWS QUALITY CONTROL.

LAZ038-040-048-061>063-065>067-069-290800-
SOUTHEAST LOUISIANA

CITY           SKY/WX    TMP DP  RH WIND       PRES   REMARKS
N.O. AUDUBON   NOT AVBL
N.O. INTL ARPT PTCLDY    48  44  86 CALM      30.23S
N.O. LAKEFRONT CLEAR     53  46  77 CALM      30.24R
N.O. DOWNTOWN* NOT AVBL
SLIDELL        PTCLDY    41  38  89 CALM      30.23R
BATON ROUGE    CLEAR     44  40  85 E3        30.22S
BOOTHVILLE     PTCLDY    52  48  86 CALM      30.23S
BELLE CHASSE   PTCLDY    43  39  87 CALM      30.23R FOG
BOGALUSA*        N/A     42  38  87 CALM      30.25S
GALLIANO*      NOT AVBL
NEW ROADS*     NOT AVBL
GONZALES*      NOT AVBL
HAMMOND*       NOT AVBL
HOUMA*         CLEAR     47  47 100 NW5       30.23R FOG
PORT FOURCHON* SUNNY     63  55  77 SE5       30.25R

$$

MSZ070-080>082-290800-
SOUTHERN MISSISSIPPI

CITY           SKY/WX    TMP DP  RH WIND       PRES   REMARKS
MCCOMB         CLEAR     46  40  79 CALM      30.22S
GULFPORT       CLEAR     43  40  89 CALM      30.23R
BILOXI         PTCLDY    46  46 100 CALM      30.23R FOG
PASCAGOULA     PTCLDY    39  38  96 CALM      30.24R FOG

$$

COASTAL OBSERVATIONS
LAKE AND NEARSHORE STATIONS

STATION/POSITION TIME  TEMP    WIND        PRES    WAVE
                       AIR SEA DIR/SP/G            HT/PER
                 (UTC) (F)     (DEG/KT/KT) (MB)    (FT/S)
PASCAGOULA       0622   57     160/  3/  4 1023.0
WAVELAND YACHT   0622   51     330/  3/  3 1022.7
GRAND ISLE       0622   62 64  160/  6/ 11 1023.3
SOUTHWEST PASS   0622   56 46  150/  5/  6 1023.4
NEW CANAL        0622   53 54  270/  1/  1 1023.8
SHELL BEACH      0622   53 56  130/  4/  5 1023.2

OFFSHORE STATIONS

STATION/POSITION TIME  TEMP    WIND        PRES    WAVE
                       AIR SEA DIR/SP/G            HT/PER
                 (UTC) (F)     (DEG/KT/KT) (MB)    (FT/S)
64 S DAUPHIN ISL 0556   63 68  110/ 14/ 16 1023.6    2/ 3

$$




USA.gov is the U.S. government's official web portal to all federal, state and local government web resources and services.